#timestamp,LO_Frequency,Hit,StdDev 
1565596815.1,286046991.0,N
1565596816.0,286046991.0,N
1565596835.8,286046987.7,N
1565596855.6,286046984.9,N
1565596875.5,286046980.5,N
1565596895.3,286046983.1,N
1565596915.2,286046985.7,N
1565596935.0,286046991.2,N
1565596935.9,286046991.2,N
1565596955.8,286046994.6,N
1565596975.6,286046999.5,N
1565596995.5,286047002.2,N
1565597015.3,286047006.3,N
1565597035.2,286047009.5,N
1565597055.9,286047010.9,N
1565597075.7,286047017.2,N
1565597095.6,286047021.0,N
1565597115.4,286047026.5,N
1565597135.2,286047025.6,N
1565597155.1,286047029.3,N
1565597156.0,286047029.3,N
1565597175.8,286047031.3,N
1565597195.7,286047031.1,N
1565597215.5,286047028.7,N
1565597235.3,286047027.6,N
1565597255.2,286047030.4,N
1565597275.0,286047032.6,N
1565597275.9,286047032.6,N
1565597295.7,286047034.7,N
1565597315.6,286047036.2,N
1565597335.4,286047037.0,N
1565597355.3,286047037.4,N
1565597375.1,286047039.4,N
1565597395.8,286047036.2,N
1565597415.7,286047032.9,N
1565597435.5,286047029.0,N
1565597455.4,286047029.5,N
1565597475.2,286047025.3,N
1565597495.0,286047024.1,N
1565597495.9,286047024.1,N
1565597515.8,286047024.9,N
1565597535.6,286047028.4,Y
1565597555.5,286047002.1,P
1565597575.3,286047001.9,N
1565597595.1,286047002.5,N
1565597615.9,286047001.2,N
1565597635.7,286046999.9,N
1565597655.5,286047002.6,N
1565597675.4,286047004.4,N
1565597695.2,286047005.7,N
1565597715.1,286047007.3,N
1565597716.0,286047007.3,N
1565597735.8,286047007.5,N
1565597755.7,286047012.2,N
1565597775.5,286047009.3,N
1565597795.3,286047013.5,N
1565597815.2,286047018.8,N
1565597835.0,286047020.3,N
1565597835.9,286047020.3,N
1565597855.8,286047018.8,N
1565597875.6,286047018.0,N
1565597895.4,286047016.8,N
1565597915.3,286047015.1,N
1565597935.1,286047013.1,N
1565597955.8,286047012.5,N
1565597975.7,286047013.8,N
1565597995.5,286047011.2,N
1565598015.4,286047012.1,N
1565598035.2,286047008.6,N
1565598055.0,286047003.4,N
1565598055.9,286047003.4,N
1565598075.8,286046999.9,N
1565598095.6,286046998.0,N
1565598115.5,286046994.2,N
1565598135.3,286046991.5,N
1565598155.1,286046982.6,N
1565598175.9,286046981.0,N
1565598195.7,286046983.5,N
1565598215.5,286046981.3,N
1565598235.4,286046983.0,N
1565598255.2,286046982.0,N
1565598275.1,286046975.7,N
1565598276.0,286046975.7,N
1565598295.8,286046971.2,N
1565598315.6,286046966.7,N
1565598335.5,286046968.2,N
1565598355.3,286046964.7,N
1565598375.2,286046961.3,N
1565598395.9,286046961.2,N
1565598415.7,286046957.6,N
1565598435.6,286046959.4,N
1565598455.4,286046962.8,N
1565598475.2,286046961.5,N
1565598495.1,286046961.5,N
1565598496.0,286046961.5,N
1565598515.8,286046967.0,N
1565598535.7,286046971.1,N
1565598555.5,286046973.2,N
1565598575.3,286046969.6,N
1565598595.2,286046963.3,N
1565598615.0,286046960.2,Y
1565598615.9,286046960.2,P
1565598635.7,286046986.1,N
1565598685.6,286046985.3,E
1565598695.5,286046992.8,N
1565598715.4,286046996.2,P
1565598735.2,286046992.6,P
1565598755.0,286046991.9,Y
1565598755.9,286046991.9,P
1565598775.8,286047004.0,P
1565598795.6,286047007.4,N
1565598815.5,286047007.4,N
1565598835.3,286047005.1,N
1565598855.1,286047005.0,N
1565598875.9,286047007.8,N
1565598895.7,286047010.1,N
1565598915.5,286047010.4,N
1565598935.4,286047010.4,N
1565598955.2,286047008.1,N
1565598975.1,286047006.5,N
1565598976.0,286047006.5,N
1565598995.8,286047002.5,N
1565599015.6,286047000.2,N
1565599035.5,286046998.4,N
1565599055.3,286046995.8,N
1565599075.1,286046991.9,N
1565599095.9,286046991.8,N
1565599115.7,286046988.9,N
1565599135.6,286046987.3,N
1565599155.4,286046994.1,N
1565599175.2,286046997.5,N
1565599195.1,286046998.7,N
1565599226.0,286047001.2,E
1565599235.0,286046999.5,N
1565599235.9,286046999.5,P
1565599255.8,286046997.0,P
1565599275.6,286046994.6,Y
1565599295.4,286046999.1,P
1565599315.3,286047000.2,N
1565599335.1,286047000.5,N
1565599355.9,286047002.6,Y
1565599375.7,286047002.7,P
1565599395.5,286047000.8,N
1565599415.4,286046998.4,N
1565599435.2,286046996.8,N
1565599455.0,286046997.4,N
1565599455.9,286046997.4,N
1565599475.8,286046996.1,N
1565599495.6,286046995.5,N
1565599515.5,286046995.3,N
1565599535.3,286046991.7,Y
1565599555.2,286046993.0,P
1565599575.9,286046991.4,P
1565599595.7,286046988.3,P
1565599615.6,286046984.1,Y
1565599635.4,286046986.9,P
1565599655.3,286046991.5,N
1565599675.1,286046995.5,N
1565599676.0,286046995.5,N
1565599695.8,286046998.8,N
1565599715.7,286046996.8,N
1565599735.5,286046993.5,N
1565599755.3,286046993.8,N
1565599775.2,286046998.0,N
1565599795.0,286046995.2,N
1565599795.9,286046995.2,N
1565599815.8,286047001.2,N
1565599835.6,286047000.0,N
1565599855.4,286047000.2,N
1565599875.3,286047000.2,N
1565599895.1,286047002.1,N
1565599915.8,286047003.0,N
1565599935.7,286047004.0,N
1565599955.5,286047001.6,N
1565599975.4,286046998.8,N
1565599995.2,286046997.7,N
1565600015.0,286046993.6,N
1565600015.9,286046993.6,N
1565600035.8,286046990.2,N
1565600055.6,286046992.8,N
1565600075.5,286046985.4,Y
1565600095.3,286046989.0,P
1565600115.1,286046989.6,N
1565600135.9,286046990.7,N
1565600155.7,286046991.7,N
1565600175.5,286046996.3,N
1565600195.4,286046998.0,N
1565600215.2,286046999.5,N
1565600235.1,286046995.2,N
1565600236.0,286046995.2,N
1565600255.8,286046996.1,N
1565600275.6,286046995.0,N
1565600295.5,286046997.5,N
1565600315.3,286047002.5,N
1565600335.1,286047002.1,N
1565600355.9,286047002.4,N
1565600375.7,286046999.3,N
1565600395.6,286046999.0,N
